This demonstration page uses our WeatherBlox Daily Observations layout. Learn more.

Left ArrowRight Arrow

38.88101, -77.10428

Hourly Observations for May 6, 2022

Temp ( °F °C ) Dew Point ( °F °C ) Humidity (%) Winds ( mph kmh ) Pressure ( in mb ) Visibility ( mi km ) Precip ( " mm )
12:52 am 00:52 Mostly Cloudy 60 15.6 53 11.7 78 78 S 3 6 30.01 1016 10 16 0.00 0.00
1:52 am 01:52 Cloudy 61 16.1 54 12.2 78 78 SSE 7 11 29.98 1015 10 16 0.00 0.00
2:52 am 02:52 Cloudy 61 16.1 55 12.8 81 81 S 7 11 29.95 1014 10 16 0.00 0.00
3:52 am 03:52 Cloudy 60 15.6 55 12.8 84 84 S 9 15 29.95 1014 10 16 0.00 0.00
4:52 am 04:52 Cloudy with Drizzle 60 15.6 55 12.8 84 84 SSW 6 9 29.94 1014 10 16 0.00 0.00
5:52 am 05:52 Cloudy 60 15.6 54 12.2 80 80 S 9 15 29.94 1014 10 16 0.00 0.00
6:15 am 06:15 Cloudy with Light Rain 60 15.6 54 12.2 80 80 S 8 13 29.94 1014 10 16 0.00 0.00
6:52 am 06:52 Cloudy with Light Rain 59 15 55 12.8 87 87 S 13 20 29.92 1013 10 16 0.00 0.00
7:52 am 07:52 Cloudy with Light Rain 59 15 55 12.8 87 87 S 9 15 29.92 1013 10 16 0.00 0.00
8:52 am 08:52 Cloudy with Light Rain 59 15 55 12.8 87 87 S 10 17 29.91 1013 6 10 0.02 0.51
9:15 am 09:15 Cloudy with Light Rain 59 15 55 12.8 87 87 S 10 17 29.91 1013 9 14 0.03 0.76
9:52 am 09:52 Cloudy with Light Rain 59 15 55 12.8 87 87 S 6 9 29.90 1013 6 10 0.07 1.78
10:43 am 10:43 Cloudy with Light Rain 59 15 56 13.3 90 90 SSE 7 11 29.88 1012 5 8 0.08 2.03
10:52 am 10:52 Cloudy with Light Rain 59 15 56 13.3 90 90 SSE 8 13 29.86 1011 6 10 0.09 2.29
11:52 am 11:52 Cloudy with Light Rain 61 16.1 57 13.9 87 87 ESE 7 11 29.84 1010 10 16 0.02 0.51
11:59 am 11:59 Cloudy with Light Rain 61 16.1 57 13.9 87 87 SE 5 7 29.84 1010 10 16 0.00 0.00
12:52 pm 12:52 Cloudy with Light Rain 61 16.1 57 13.9 87 87 SSE 7 11 29.83 1010 10 16 0.03 0.76
1:52 pm 13:52 Cloudy 62 16.7 58 14.4 86 86 E 5 7 29.78 1008 10 16 0.00 0.00
2:20 pm 14:20 Cloudy with Nearby Thunderstorms 62 16.7 58 14.4 86 86 ESE 9 15 29.76 1008 4 6 0.02 0.51
2:26 pm 14:26 Cloudy with Nearby Thunderstorms 62 16.7 58 14.4 86 86 SE 5 7 29.77 1008 3 5 0.04 1.02
2:48 pm 14:48 Cloudy 63 17 59 15 88 88 E 6 9 29.75 1007 10 16 0.05 1.27
2:52 pm 14:52 Cloudy 63 17.2 58 14.4 84 84 E 7 11 29.74 1007 10 16 0.05 1.27
3:14 pm 15:14 Cloudy 63 17.2 59 15 87 87 ESE 5 7 29.74 1007 10 16 0.00 0.00
3:42 pm 15:42 Cloudy 63 17.2 59 15 87 87 E 8 13 29.72 1006 10 16 0.01 0.25
3:52 pm 15:52 Cloudy 63 17.2 59 15 87 87 E 7 11 29.72 1006 10 16 0.01 0.25
4:52 pm 16:52 Cloudy 62 16.7 58 14.4 86 86 NE 12 19 29.70 1006 10 16 0.00 0.00
5:26 pm 17:26 Cloudy 61 16.1 57 13.9 87 87 ENE 16 26 29.70 1006 10 16 0.00 0.00
5:34 pm 17:34 Cloudy 60 15.6 56 13.3 86 86 NE 15 24 29.71 1006 10 16 0.00 0.00
5:44 pm 17:44 Cloudy with Light Rain 59 15 55 12.8 87 87 NNE 17 28 29.70 1006 6 10 0.00 0.00
5:52 pm 17:52 Cloudy with Light Rain 59 15 55 12.8 87 87 NE 16 26 29.70 1006 2 3 0.00 0.00
5:59 pm 17:59 Cloudy with Light Rain 59 15 55 12.8 87 87 NE 14 22 29.71 1006 2 2 0.00 0.00
6:12 pm 18:12 Cloudy with Rain 58 14.4 55 12.8 90 90 NE 15 24 29.71 1006 1 2 0.01 0.25
6:27 pm 18:27 Cloudy with Light Rain 58 14.4 56 13.3 93 93 NE 13 20 29.70 1006 3 5 0.06 1.52
6:52 pm 18:52 Cloudy with Light Rain 58 14.4 55 12.8 90 90 NE 14 22 29.68 1005 3 5 0.06 1.52
7:01 pm 19:01 Cloudy with Light Rain 58 14.4 55 12.8 90 90 ENE 16 26 29.68 1005 3 4 0.00 0.00
7:15 pm 19:15 Cloudy with Thunderstorms 58 14.4 55 12.8 90 90 NE 14 22 29.69 1005 3 4 0.00 0.00
7:24 pm 19:24 Cloudy with Strong Thunderstorms 57 13.9 55 12.8 93 93 NNE 10 17 29.70 1006 1 1 0.16 4.06
7:32 pm 19:32 Cloudy with Thunderstorms 58 14.4 55 12.8 90 90 NE 14 22 29.67 1005 2 3 0.21 5.33
7:41 pm 19:41 Cloudy with Thunderstorms 58 14.4 55 12.8 90 90 NE 15 24 29.67 1005 3 5 0.23 5.84
7:52 pm 19:52 Cloudy with Thunderstorms 58 14.4 55 12.8 90 90 ENE 15 24 29.66 1005 4 6 0.26 6.60
8:10 pm 20:10 Cloudy with Light Rain 58 14.4 55 12.8 90 90 ENE 13 20 29.67 1005 10 16 0.00 0.00
8:20 pm 20:20 Cloudy 58 14.4 55 12.8 90 90 NE 15 24 29.67 1005 10 16 0.00 0.00
8:52 pm 20:52 Cloudy with Light Rain 59 15 55 12.8 87 87 ENE 15 24 29.66 1004 10 16 0.00 0.00
9:52 pm 21:52 Cloudy 58 14.4 54 12.2 87 87 ENE 15 24 29.66 1004 10 16 0.04 1.02
10:23 pm 22:23 Cloudy with Rain 57 13.9 54 12.2 90 90 ENE 21 33 29.63 1003 4 6 0.03 0.76
10:52 pm 22:52 Cloudy with Light Rain 56 13.3 52 11.1 87 87 ENE 24 39 29.62 1003 10 16 0.06 1.52
11:24 pm 23:24 Cloudy with Light Rain 56 13.3 52 11.1 87 87 NE 16 26 29.61 1003 10 16 0.00 0.00
11:52 pm 23:52 Cloudy with Light Rain 55 12.8 51 10.6 87 87 NE 20 31 29.60 1002 10 16 0.00 0.00

Powered by AerisWeather